FW4518 Weather Reports


time (UTC)temp
C
wind
direction
speed
KPH
gust
KPH
rain 1hr
cm
rain 24hr
cm
rain mn
cm
humidity
%
barometer
mb
20260509090627 5 0.0 0.0 0.00 0.00 0.00 88 1023.3
20260509085626 6 0.0 0.0 0.00 0.00 0.00 85 1023.3
20260509084626 6 0.0 0.0 0.00 0.00 0.00 84 1023.3
20260509083626 6 0.0 0.0 0.00 0.00 0.00 86 1023.3
20260509082646 6 0.0 0.0 0.00 0.00 0.00 85 1023.4
20260509081627 7 0.0 0.0 0.00 0.00 0.00 82 1023.2
20260509080629 7 0.0 0.0 0.00 0.00 0.00 81 1023.2
20260509075627 7 0.0 0.0 0.00 0.00 0.00 81 1023.1
20260509074626 8 0.0 0.0 0.00 0.00 0.00 79 1023.1
20260509073626 8 0.0 0.0 0.00 0.00 0.00 77 1023.0
20260509072626 10 0.0 1.6 0.00 0.00 0.00 74 1022.9
20260509071646 9 239 1.6 8.0 0.00 0.00 0.00 75 1022.8
20260509070647 10 0.0 0.0 0.00 0.00 0.00 75 1022.8
20260509065627 10 0.0 0.0 0.00 0.00 0.00 71 1022.6
20260509064626 11 343 1.6 4.8 0.00 0.00 0.00 69 1022.5
20260509063626 10 0.0 1.6 0.00 0.00 0.00 70 1022.6
20260509062647 10 0.0 0.0 0.00 0.00 0.00 72 1022.6
20260509061626 11 0.0 1.6 0.00 0.00 0.00 67 1022.5
20260509060626 12 176 0.0 3.2 0.00 0.00 0.00 65 1022.4
20260509055626 12 12 1.6 3.2 0.00 0.00 0.00 64 1022.4
20260509054647 11 0.0 0.0 0.00 0.00 0.00 67 1022.4
20260509053626 12 0.0 0.0 0.00 0.00 0.00 64 1022.3
20260509052627 12 0.0 0.0 0.00 0.00 0.00 63 1022.2
20260509051646 13 0.0 0.0 0.00 0.00 0.00 62 1022.3
20260509050706 14 21 3.2 4.8 0.00 0.00 0.00 61 1022.2
20260509045627 15 11 4.8 8.0 0.00 0.00 0.00 60 1022.1
20260509044626 15 342 3.2 11.3 0.00 0.00 0.00 60 1022.0
20260509043626 15 246 1.6 4.8 0.00 0.00 0.00 60 1021.9
20260509042626 15 250 4.8 12.9 0.00 0.00 0.00 59 1021.8
20260509041627 15 356 4.8 8.0 0.00 0.00 0.00 57 1021.6
20260509040627 15 29 6.4 14.5 0.00 0.00 0.00 57 1021.6
20260509035626 16 347 4.8 12.9 0.00 0.00 0.00 57 1021.5
20260509034627 16 321 4.8 16.1 0.00 0.00 0.00 56 1021.3
20260509033627 16 124 4.8 12.9 0.00 0.00 0.00 55 1021.2
20260509032646 16 311 6.4 14.5 0.00 0.00 0.00 54 1021.2
20260509031627 16 277 4.8 14.5 0.00 0.00 0.00 54 1021.1
20260509030626 17 342 6.4 12.9 0.00 0.00 0.00 52 1020.9
20260509025627 17 79 8.0 17.7 0.00 0.00 0.00 51 1020.7
20260509024626 17 285 6.4 12.9 0.00 0.00 0.00 50 1020.6
20260509023646 18 216 6.4 17.7 0.00 0.00 0.00 48 1020.4
20260509022626 18 194 8.0 16.1 0.00 0.00 0.00 46 1020.3
20260509021627 18 200 8.0 17.7 0.00 0.00 0.00 46 1020.3
20260509020626 19 43 8.0 16.1 0.00 0.00 0.00 44 1020.1
20260509015626 19 32 8.0 14.5 0.00 0.00 0.00 44 1020.0
20260509014628 20 137 9.7 17.7 0.00 0.00 0.00 44 1019.9
20260509013626 20 238 9.7 19.3 0.00 0.00 0.00 43 1019.9
20260509012626 20 280 8.0 22.5 0.00 0.00 0.00 42 1019.8
20260509011627 21 23 8.0 22.5 0.00 0.00 0.00 41 1019.6
20260509010626 21 357 6.4 12.9 0.00 0.00 0.00 40 1019.5
20260509005627 22 252 6.4 19.3 0.00 0.00 0.00 40 1019.6
20260509004627 21 357 8.0 17.7 0.00 0.00 0.00 40 1019.7
20260509003627 22 289 6.4 24.1 0.00 0.00 0.00 39 1019.6
20260509002627 22 23 8.0 17.7 0.00 0.00 0.00 38 1019.5
20260509001628 22 329 8.0 19.3 0.00 0.00 0.00 38 1019.4
20260509000627 22 63 12.9 19.3 0.00 0.00 0.00 38 1019.3
20260508235647 22 104 9.7 17.7 0.00 0.00 0.00 37 1019.3
20260508234647 22 269 8.0 16.1 0.00 0.00 0.00 36 1019.2
20260508233627 23 71 6.4 17.7 0.00 0.00 0.00 36 1019.2
20260508232627 23 204 8.0 17.7 0.00 0.00 0.00 37 1019.2
20260508231627 22 176 11.3 27.4 0.00 0.00 0.00 37 1019.3
20260508230627 22 150 11.3 20.9 0.00 0.00 0.00 37 1019.4
20260508225627 22 197 11.3 20.9 0.00 0.00 0.00 39 1019.3
20260508224627 22 180 11.3 20.9 0.00 0.00 0.00 37 1019.3
20260508223628 23 123 9.7 17.7 0.00 0.00 0.00 37 1019.4
20260508222627 22 233 8.0 19.3 0.00 0.00 0.00 37 1019.4
20260508221647 23 231 8.0 17.7 0.00 0.00 0.00 36 1019.3
20260508220627 23 122 11.3 19.3 0.00 0.00 0.00 37 1019.3
20260508215627 22 61 8.0 19.3 0.00 0.00 0.00 37 1019.3
20260508214627 22 237 6.4 19.3 0.00 0.00 0.00 37 1019.3
20260508213627 22 271 11.3 25.7 0.00 0.00 0.00 36 1019.4
20260508212627 22 329 9.7 22.5 0.00 0.00 0.00 36 1019.4
20260508211627 23 32 9.7 22.5 0.00 0.00 0.00 35 1019.4
20260508210627 22 333 8.0 24.1 0.00 0.00 0.00 34 1019.3
20260508205648 22 205 11.3 20.9 0.00 0.00 0.00 35 1019.3
20260508204707 22 217 11.3 22.5 0.00 0.00 0.00 34 1019.3
20260508203627 22 196 8.0 25.7 0.00 0.00 0.00 34 1019.3
20260508202627 22 149 9.7 22.5 0.00 0.00 0.00 33 1019.3
20260508201628 22 199 11.3 24.1 0.00 0.00 0.00 33 1019.4
20260508200627 22 168 9.7 19.3 0.00 0.00 0.00 32 1019.3
20260508195628 22 146 11.3 24.1 0.00 0.00 0.00 31 1019.3
20260508194647 22 280 6.4 17.7 0.00 0.00 0.00 31 1019.3
20260508193627 22 218 6.4 17.7 0.00 0.00 0.00 30 1019.4
20260508192648 21 321 8.0 14.5 0.00 0.00 0.00 31 1019.4
20260508191628 21 113 8.0 17.7 0.00 0.00 0.00 32 1019.4
20260508190627 21 326 8.0 16.1 0.00 0.00 0.00 31 1019.4
20260508185627 21 198 6.4 19.3 0.00 0.00 0.00 31 1019.5
20260508184628 20 15 8.0 17.7 0.00 0.00 0.00 32 1019.4
20260508183648 20 232 3.2 8.0 0.00 0.00 0.00 35 1019.7
20260508182647 18 252 4.8 9.7 0.00 0.00 0.00 37 1019.8
20260508181648 17 281 8.0 11.3 0.00 0.00 0.00 37 1019.8
20260508180628 18 86 6.4 14.5 0.00 0.00 0.00 39 1019.7
20260508175648 18 285 3.2 9.7 0.00 0.00 0.00 40 1019.4
20260508174627 18 40 4.8 11.3 0.00 0.00 0.00 38 1019.3
20260508173627 18 0 4.8 12.9 0.00 0.00 0.00 38 1019.4
20260508172629 18 97 4.8 9.7 0.00 0.00 0.00 38 1019.6
20260508171628 18 265 3.2 9.7 0.00 0.00 0.00 43 1019.5
20260508170627 17 14 6.4 11.3 0.00 0.00 0.00 44 1019.5
20260508165628 17 30 9.7 16.1 0.00 0.00 0.00 45 1019.5
20260508164627 17 44 4.8 12.9 0.00 0.00 0.00 46 1019.6
20260508163628 18 350 3.2 8.0 0.00 0.00 0.00 48 1019.7
20260508162629 17 218 4.8 9.7 0.00 0.00 0.00 50 1019.8
20260508161628 16 93 4.8 11.3 0.00 0.00 0.00 51 1019.8
20260508160628 16 207 4.8 9.7 0.00 0.00 0.00 53 1019.6
20260508155648 16 177 4.8 9.7 0.00 0.00 0.00 53 1019.6
20260508154628 15 257 1.6 8.0 0.00 0.00 0.00 53 1019.6
20260508153648 15 217 1.6 4.8 0.00 0.00 0.00 54 1019.5
20260508152627 15 195 4.8 8.0 0.00 0.00 0.00 53 1019.4
20260508151648 13 110 3.2 6.4 0.00 0.00 0.00 53 1019.4
20260508150627 12 202 3.2 8.0 0.00 0.00 0.00 56 1019.4
20260508145628 11 94 6.4 9.7 0.00 0.00 0.00 61 1019.4
20260508144628 11 133 6.4 11.3 0.00 0.00 0.00 62 1019.4
20260508143630 10 204 3.2 6.4 0.00 0.00 0.00 65 1019.2
20260508142628 8 139 3.2 6.4 0.00 0.00 0.00 68 1019.2
20260508141628 7 253 1.6 4.8 0.00 0.00 0.00 74 1019.4
20260508140708 6 0.0 1.6 0.00 0.00 0.00 77 1019.5
20260508135648 6 223 1.6 4.8 0.00 0.00 0.00 77 1019.5
20260508134647 5 159 1.6 6.4 0.00 0.00 0.00 78 1019.4
20260508133708 4 211 0.0 1.6 0.00 0.00 0.00 81 1019.4
20260508132629 4 186 0.0 3.2 0.00 0.00 0.00 81 1019.4
20260508131628 2 196 0.0 4.8 0.00 0.00 0.00 86 1019.4
20260508130627 3 195 3.2 4.8 0.00 0.00 0.00 83 1019.3
20260508125628 3 0.0 0.0 0.00 0.00 0.00 83 1019.2
20260508124628 2 0.0 0.0 0.00 0.00 0.00 88 1019.2
20260508123708 3 218 0.0 3.2 0.00 0.00 0.00 83 1019.0
20260508122628 4 178 1.6 3.2 0.00 0.00 0.00 81 1018.8
20260508121628 3 197 1.6 3.2 0.00 0.00 0.00 83 1018.9
20260508120628 3 159 1.6 4.8 0.00 0.00 0.00 85 1018.9
20260508115629 3 166 1.6 4.8 0.00 0.00 0.00 82 1018.8
20260508114628 3 8 1.6 3.2 0.00 0.00 0.00 80 1018.9
20260508113628 3 296 0.0 3.2 0.00 0.00 0.00 81 1018.9
20260508112628 3 183 0.0 3.2 0.00 0.00 0.00 82 1018.8
20260508111628 3 0.0 0.0 0.00 0.00 0.00 83 1018.7
20260508110628 4 233 0.0 3.2 0.00 0.00 0.00 81 1018.7
20260508105628 5 37 1.6 3.2 0.00 0.00 0.00 81 1018.6
20260508104628 5 222 1.6 3.2 0.00 0.00 0.00 80 1018.6
20260508103628 5 164 1.6 3.2 0.00 0.00 0.00 80 1018.4
20260508102628 6 171 1.6 3.2 0.00 0.00 0.00 79 1018.4
20260508101648 6 266 1.6 4.8 0.00 0.00 0.00 75 1018.3
20260508100628 6 182 1.6 3.2 0.00 0.00 0.00 77 1018.2
20260508095628 6 0.0 0.0 0.00 0.00 0.00 77 1018.2
20260508094628 6 0.0 0.0 0.00 0.00 0.00 80 1018.2
20260508093628 6 0.0 0.0 0.00 0.00 0.00 75 1018.2
20260508092628 7 350 0.0 3.2 0.00 0.00 0.00 76 1018.1
20260508091628 7 0.0 0.0 0.00 0.00 0.00 73 1018.0